Time,TemperatureF,DewpointF,PressureIn,WindDirection,WindDirectionDegrees,WindSpeedMPH,WindSpeedGustMPH,Humidity,HourlyPrecipIn,Conditions,Clouds,dailyrainin,SoftwareType,DateUTC
2013-04-04 00:00:00,39.0,-99.9,-100.00,NE,42,0.0,4.0,-999,-99.99,,,0.00,,2013-04-04 07:00:00,
2013-04-04 00:53:00,39.0,-99.9,-100.00,North,-999,-999.0,-999.0,-999,-99.99,,,0.00,,2013-04-04 07:53:00,
2013-04-04 01:00:00,40.0,-99.9,-100.00,North,-999,-999.0,-999.0,-999,-99.99,,,0.00,,2013-04-04 08:00:00,
2013-04-04 01:53:00,40.0,-99.9,-100.00,North,-999,-999.0,-999.0,-999,-99.99,,,0.00,,2013-04-04 08:53:00,
2013-04-04 02:00:00,38.0,-99.9,-100.00,NE,38,3.0,6.0,-999,-99.99,,,0.00,,2013-04-04 09:00:00,
2013-04-04 03:00:00,39.0,-99.9,-100.00,NE,47,3.0,6.0,-999,-99.99,,,0.00,,2013-04-04 10:00:00,
2013-04-04 03:54:00,39.0,-99.9,-100.00,NE,47,3.0,6.0,-999,-99.99,,,0.00,,2013-04-04 10:54:00,
2013-04-04 04:00:00,39.0,-99.9,-100.00,NE,47,3.0,5.0,-999,-99.99,,,0.00,,2013-04-04 11:00:00,
2013-04-04 05:00:00,39.0,-99.9,-100.00,NE,55,3.0,6.0,-999,-99.99,,,0.00,,2013-04-04 12:00:00,
2013-04-04 06:00:00,36.0,-99.9,-100.00,NNE,26,5.0,8.0,-999,-99.99,,,0.00,,2013-04-04 13:00:00,
2013-04-04 07:00:00,39.0,-99.9,-100.00,NE,41,3.0,6.0,-999,-99.99,,,0.00,,2013-04-04 14:00:00,
2013-04-04 08:00:00,43.0,-99.9,-100.00,NE,52,3.0,6.0,-999,-99.99,,,0.00,,2013-04-04 15:00:00,
2013-04-04 09:00:00,45.0,-99.9,-100.00,NNE,28,4.0,5.0,-999,-99.99,,,0.00,,2013-04-04 16:00:00,
2013-04-04 09:43:00,45.0,-99.9,-100.00,NNE,28,4.0,5.0,-999,-99.99,,,0.00,,2013-04-04 16:43:00,
2013-04-04 09:55:00,45.0,-99.9,-100.00,NNE,28,4.0,5.0,-999,-99.99,,,0.00,,2013-04-04 16:55:00,
2013-04-04 10:00:00,48.0,-99.9,-100.00,East,83,3.0,10.0,-999,-99.99,,,0.00,,2013-04-04 17:00:00,
2013-04-04 11:00:00,51.0,-99.9,-100.00,SSW,213,3.0,9.0,-999,-99.99,,,-99.99,,2013-04-04 18:00:00,
2013-04-04 12:00:00,48.0,-99.9,-100.00,SSW,210,9.0,19.0,-999,-99.99,,,0.00,,2013-04-04 19:00:00,
2013-04-04 13:00:00,46.0,-99.9,-100.00,SSW,200,11.0,17.0,-999,-99.99,,,0.00,,2013-04-04 20:00:00,
2013-04-04 14:00:00,46.0,-99.9,-100.00,South,191,13.0,21.0,-999,-99.99,,,0.00,,2013-04-04 21:00:00,
2013-04-04 15:00:00,44.0,-99.9,-100.00,South,188,13.0,24.0,-999,-99.99,,,-99.99,,2013-04-04 22:00:00,
2013-04-04 16:00:00,41.0,-99.9,-100.00,South,172,14.0,26.0,-999,-99.99,,,0.00,,2013-04-04 23:00:00,
2013-04-04 17:00:00,39.0,-99.9,-100.00,South,184,10.0,16.0,-999,-99.99,,,0.00,,2013-04-05 00:00:00,
2013-04-04 18:00:00,38.0,-99.9,-100.00,SW,230,3.0,8.0,-999,-99.99,,,0.00,,2013-04-05 01:00:00,
2013-04-04 19:00:00,38.0,-99.9,-100.00,NNE,28,3.0,7.0,-999,-99.99,,,0.00,,2013-04-05 02:00:00,
2013-04-04 20:00:00,39.0,-99.9,-100.00,NE,45,2.0,5.0,-999,-99.99,,,0.00,,2013-04-05 03:00:00,
2013-04-04 21:00:00,39.0,-99.9,-100.00,SSE,150,2.0,6.0,-999,-99.99,,,0.00,,2013-04-05 04:00:00,
2013-04-04 22:00:00,38.0,-99.9,-100.00,South,174,3.0,7.0,-999,-99.99,,,0.00,,2013-04-05 05:00:00,
2013-04-04 23:00:00,38.0,-99.9,-100.00,NE,44,2.0,5.0,-999,-99.99,,,0.00,,2013-04-05 06:00:00,